owner,sensor,date,latitude,longitude,vertical_datum,wind_speed,wind_to_direction,wind_speed_of_gust,qcFlag 
TABS,ioos:station:TABS:X:1,2015-08-01T00:00:00Z,27.0660,-96.3383,4.0,2.721562051,76.83141786,4.07,'11111222,11111222,11111222' 
TABS,ioos:station:TABS:X:1,2015-08-01T00:30:00Z,27.0660,-96.3383,4.0,2.425633938,72.23695126,4.0,'11111222,11111222,11111222' 
TABS,ioos:station:TABS:X:1,2015-08-01T01:00:00Z,27.0660,-96.3383,4.0,1.660271062,71.01901705,2.56,'11111222,11111222,11111222' 
TABS,ioos:station:TABS:X:1,2015-08-01T01:30:00Z,27.0660,-96.3383,4.0,1.565407295,70.98594916,2.2,'11111222,11111222,11111222' 
TABS,ioos:station:TABS:X:1,2015-08-01T02:00:00Z,27.0660,-96.3383,4.0,1.386001443,73.65673476,1.95,'11111222,11111222,11111222' 
TABS,ioos:station:TABS:X:1,2015-08-01T02:30:00Z,27.0660,-96.3383,4.0,0.968813708,78.68967306,1.53,'11111222,11111222,11111222' 
TABS,ioos:station:TABS:X:1,2015-08-01T03:00:00Z,27.0660,-96.3383,4.0,1.45,96.7333265,2.21,'11111222,11111222,11111222' 
TABS,ioos:station:TABS:X:1,2015-08-01T03:30:00Z,27.0660,-96.3383,4.0,1.406875972,76.85236745,2.26,'11111222,11111222,11111222' 
TABS,ioos:station:TABS:X:1,2015-08-01T04:00:00Z,27.0660,-96.3383,4.0,1.114001795,78.08445987,1.6,'11111222,11111222,11111222' 
TABS,ioos:station:TABS:X:1,2015-08-01T04:30:00Z,27.0660,-96.3383,4.0,1.411736519,92.84255215,2.01,'11111222,11111222,11111222' 
TABS,ioos:station:TABS:X:1,2015-08-01T05:00:00Z,27.0660,-96.3383,4.0,1.033924562,94.99415323,1.53,'11111222,11111222,11111222' 
TABS,ioos:station:TABS:X:1,2015-08-01T05:30:00Z,27.0660,-96.3383,4.0,0.648845128,65.40951942,1.09,'11111222,11111222,11111222' 
TABS,ioos:station:TABS:X:1,2015-08-01T06:00:00Z,27.0660,-96.3383,4.0,0.849705831,63.43459003,1.47,'11111222,11111222,11111222' 
TABS,ioos:station:TABS:X:1,2015-08-01T06:30:00Z,27.0660,-96.3383,4.0,1.044796631,95.49273263,1.47,'11111222,11111222,11111222' 
TABS,ioos:station:TABS:X:1,2015-08-01T07:00:00Z,27.0660,-96.3383,4.0,0.842021377,74.147688,1.33,'11111222,11111222,11111222' 
TABS,ioos:station:TABS:X:1,2015-08-01T07:30:00Z,27.0660,-96.3383,4.0,1.476279106,68.12615062,1.97,'11111222,11111222,11111222' 
TABS,ioos:station:TABS:X:1,2015-08-01T08:00:00Z,27.0660,-96.3383,4.0,1.32280006,73.75673796,2.14,'11111222,11111222,11111222' 
TABS,ioos:station:TABS:X:1,2015-08-01T08:30:00Z,27.0660,-96.3383,4.0,1.080046295,89.46907901,1.95,'11111222,11111222,11111222' 
TABS,ioos:station:TABS:X:1,2015-08-01T09:00:00Z,27.0660,-96.3383,4.0,0.607289058,107.24184,1.15,'11111222,11111222,11111222' 
TABS,ioos:station:TABS:X:1,2015-08-01T09:30:00Z,27.0660,-96.3383,4.0,1.030048543,90.55667184,1.47,'11111222,11111222,11111222' 
TABS,ioos:station:TABS:X:1,2015-08-01T10:00:00Z,27.0660,-96.3383,4.0,0.702922471,39.80526755,1.4,'11111222,11111222,11111222' 
TABS,ioos:station:TABS:X:1,2015-08-01T10:30:00Z,27.0660,-96.3383,4.0,0.756637298,7.59441515,1.59,'11111222,11111222,11111222' 
TABS,ioos:station:TABS:X:1,2015-08-01T11:00:00Z,27.0660,-96.3383,4.0,0.763216876,31.60721788,1.24,'11111222,11111222,11111222' 
TABS,ioos:station:TABS:X:1,2015-08-01T11:30:00Z,27.0660,-96.3383,4.0,0.994032193,36.40847897,1.87,'11111222,11111222,11111222' 
TABS,ioos:station:TABS:X:1,2015-08-01T12:00:00Z,27.0660,-96.3383,4.0,1.221474519,50.31421755,1.99,'11111222,11111222,11111222' 
TABS,ioos:station:TABS:X:1,2015-08-01T12:30:00Z,27.0660,-96.3383,4.0,0.937229961,50.19410107,1.6,'11111222,11111222,11111222' 
TABS,ioos:station:TABS:X:1,2015-08-01T13:00:00Z,27.0660,-96.3383,4.0,1.340783353,67.64274003,2.4,'11111222,11111222,11111222' 
TABS,ioos:station:TABS:X:1,2015-08-01T13:30:00Z,27.0660,-96.3383,4.0,1.635175832,85.43963966,3.57,'11111222,11111222,11111222' 
TABS,ioos:station:TABS:X:1,2015-08-01T14:00:00Z,27.0660,-96.3383,4.0,1.630030675,89.64807646,2.3,'11111222,11111222,11111222' 
TABS,ioos:station:TABS:X:1,2015-08-01T14:30:00Z,27.0660,-96.3383,4.0,1.732772345,96.96136767,2.72,'11111222,11111222,11111222' 
TABS,ioos:station:TABS:X:1,2015-08-01T15:00:00Z,27.0660,-96.3383,4.0,2.042963534,93.08690296,3.47,'11111222,11111222,11111222' 
TABS,ioos:station:TABS:X:1,2015-08-01T15:30:00Z,27.0660,-96.3383,4.0,2.868396765,109.1301681,4.85,'11111222,11111222,11111222' 
TABS,ioos:station:TABS:X:1,2015-08-01T16:00:00Z,27.0660,-96.3383,4.0,2.605379051,102.8631419,4.16,'11111222,11111222,11111222' 
TABS,ioos:station:TABS:X:1,2015-08-01T16:30:00Z,27.0660,-96.3383,4.0,1.418203088,127.8398827,2.98,'11111222,11111222,11111222' 
TABS,ioos:station:TABS:X:1,2015-08-01T17:00:00Z,27.0660,-96.3383,4.0,1.843908891,93.73180919,3.19,'11111222,11111222,11111222' 
TABS,ioos:station:TABS:X:1,2015-08-01T17:30:00Z,27.0660,-96.3383,4.0,1.600499922,358.5676967,2.99,'11111222,11111222,11111222' 
TABS,ioos:station:TABS:X:1,2015-08-01T18:00:00Z,27.0660,-96.3383,4.0,0.827345152,82.35919019,3.42,'11111222,11111222,11111222' 
TABS,ioos:station:TABS:X:1,2015-08-01T18:30:00Z,27.0660,-96.3383,4.0,1.858520917,74.39299343,3.41,'11111222,11111222,11111222' 
TABS,ioos:station:TABS:X:1,2015-08-01T19:00:00Z,27.0660,-96.3383,4.0,0.380788655,76.32830392,2.26,'11111222,11111222,11111222' 
TABS,ioos:station:TABS:X:1,2015-08-01T19:30:00Z,27.0660,-96.3383,4.0,2.393846277,71.48898564,4.81,'11111222,11111222,11111222' 
TABS,ioos:station:TABS:X:1,2015-08-01T20:00:00Z,27.0660,-96.3383,4.0,1.526106156,52.45396569,3.05,'11111222,11111222,11111222' 
TABS,ioos:station:TABS:X:1,2015-08-01T20:30:00Z,27.0660,-96.3383,4.0,1.434503398,54.64770707,3.02,'11111222,11111222,11111222' 
TABS,ioos:station:TABS:X:1,2015-08-01T21:00:00Z,27.0660,-96.3383,4.0,2.282191929,92.51177831,4.47,'11111222,11111222,11111222' 
TABS,ioos:station:TABS:X:1,2015-08-01T21:30:00Z,27.0660,-96.3383,4.0,4.062769991,92.11629275,6.15,'11111222,11111222,11111222' 
TABS,ioos:station:TABS:X:1,2015-08-01T22:00:00Z,27.0660,-96.3383,4.0,2.899948275,72.12698989,4.8,'11111222,11111222,11111222' 
TABS,ioos:station:TABS:X:1,2015-08-01T22:30:00Z,27.0660,-96.3383,4.0,2.130469432,74.20198454,4.43,'11111222,11111222,11111222' 
TABS,ioos:station:TABS:X:1,2015-08-01T23:00:00Z,27.0660,-96.3383,4.0,2.313114783,87.02585495,3.82,'11111222,11111222,11111222' 
TABS,ioos:station:TABS:X:1,2015-08-01T23:30:00Z,27.0660,-96.3383,4.0,2.362794955,74.78703179,4.87,'11111222,11111222,11111222' 
TABS,ioos:station:TABS:X:1,2015-08-02T00:00:00Z,27.0660,-96.3383,4.0,1.494824404,61.2056451,2.69,'11111222,11111222,11111222' 
TABS,ioos:station:TABS:X:1,2015-08-02T00:30:00Z,27.0660,-96.3383,4.0,0.0,0.0,0.0,'11111222,11111222,11111222' 
TABS,ioos:station:TABS:X:1,2015-08-02T01:00:00Z,27.0660,-96.3383,4.0,1.681219795,77.28597665,2.81,'11111222,11111222,11111222' 
TABS,ioos:station:TABS:X:1,2015-08-02T01:30:00Z,27.0660,-96.3383,4.0,0.0,0.0,0.0,'11111222,11111222,11111222' 
TABS,ioos:station:TABS:X:1,2015-08-02T02:00:00Z,27.0660,-96.3383,4.0,0.0,0.0,0.0,'11111222,11111222,11111222' 
TABS,ioos:station:TABS:X:1,2015-08-02T02:30:00Z,27.0660,-96.3383,4.0,1.335402561,95.15599318,1.97,'11111222,11111222,11111222' 
TABS,ioos:station:TABS:X:1,2015-08-02T03:00:00Z,27.0660,-96.3383,4.0,1.832211778,92.81597102,2.48,'11111222,11111222,11111222' 
TABS,ioos:station:TABS:X:1,2015-08-02T03:30:00Z,27.0660,-96.3383,4.0,1.31381125,94.36566844,1.87,'11111222,11111222,11111222' 
TABS,ioos:station:TABS:X:1,2015-08-02T04:00:00Z,27.0660,-96.3383,4.0,0.970206164,91.18160707,1.31,'11111222,11111222,11111222' 
TABS,ioos:station:TABS:X:1,2015-08-02T04:30:00Z,27.0660,-96.3383,4.0,0.632850693,95.44074023,1.11,'11111222,11111222,11111222' 
TABS,ioos:station:TABS:X:1,2015-08-02T05:00:00Z,27.0660,-96.3383,4.0,0.584208867,96.88212846,0.93,'11111222,11111222,11111222' 
TABS,ioos:station:TABS:X:1,2015-08-02T05:30:00Z,27.0660,-96.3383,4.0,0.347131099,138.5038391,1.02,'11111222,11111222,11111222' 
TABS,ioos:station:TABS:X:1,2015-08-02T06:00:00Z,27.0660,-96.3383,4.0,0.428018691,127.4056901,0.83,'11111222,11111222,11111222' 
TABS,ioos:station:TABS:X:1,2015-08-02T06:30:00Z,27.0660,-96.3383,4.0,0.0,0.0,0.0,'11111222,11111222,11111222' 
TABS,ioos:station:TABS:X:1,2015-08-02T07:00:00Z,27.0660,-96.3383,4.0,0.46389654,97.43181151,0.71,'11111222,11111222,11111222' 
TABS,ioos:station:TABS:X:1,2015-08-02T07:30:00Z,27.0660,-96.3383,4.0,0.286356421,65.22449645,0.42,'11111222,11111222,11111222' 
TABS,ioos:station:TABS:X:1,2015-08-02T08:00:00Z,27.0660,-96.3383,4.0,0.557135531,68.96211725,1.0,'11111222,11111222,11111222' 
TABS,ioos:station:TABS:X:1,2015-08-02T08:30:00Z,27.0660,-96.3383,4.0,0.33286634,147.2650607,1.02,'11111222,11111222,11111222' 
TABS,ioos:station:TABS:X:1,2015-08-02T09:00:00Z,27.0660,-96.3383,4.0,0.611310069,93.75214121,1.28,'11111222,11111222,11111222' 
TABS,ioos:station:TABS:X:1,2015-08-02T09:30:00Z,27.0660,-96.3383,4.0,0.313209195,73.3003739,0.71,'11111222,11111222,11111222' 
TABS,ioos:station:TABS:X:1,2015-08-02T10:00:00Z,27.0660,-96.3383,4.0,0.434626276,336.9743514,0.7,'11111222,11111222,11111222' 
TABS,ioos:station:TABS:X:1,2015-08-02T10:30:00Z,27.0660,-96.3383,4.0,0.431393092,44.06049556,0.69,'11111222,11111222,11111222' 
TABS,ioos:station:TABS:X:1,2015-08-02T11:00:00Z,27.0660,-96.3383,4.0,0.480416486,357.6138511,0.76,'11111222,11111222,11111222' 
TABS,ioos:station:TABS:X:1,2015-08-02T11:30:00Z,27.0660,-96.3383,4.0,0.671192968,155.3443694,0.96,'11111222,11111222,11111222' 
TABS,ioos:station:TABS:X:1,2015-08-02T12:00:00Z,27.0660,-96.3383,4.0,0.578705452,71.87776121,1.04,'11111222,11111222,11111222' 
TABS,ioos:station:TABS:X:1,2015-08-02T12:30:00Z,27.0660,-96.3383,4.0,0.729931504,80.537279,1.44,'11111222,11111222,11111222' 
TABS,ioos:station:TABS:X:1,2015-08-02T13:00:00Z,27.0660,-96.3383,4.0,0.973293378,94.71516441,1.53,'11111222,11111222,11111222' 
TABS,ioos:station:TABS:X:1,2015-08-02T13:30:00Z,27.0660,-96.3383,4.0,1.189621789,116.9961962,1.88,'11111222,11111222,11111222' 
TABS,ioos:station:TABS:X:1,2015-08-02T14:00:00Z,27.0660,-96.3383,4.0,0.495176736,136.6368889,1.22,'11111222,11111222,11111222' 
TABS,ioos:station:TABS:X:1,2015-08-02T14:30:00Z,27.0660,-96.3383,4.0,0.677421582,351.5108655,1.77,'11111222,11111222,11111222' 
TABS,ioos:station:TABS:X:1,2015-08-02T15:00:00Z,27.0660,-96.3383,4.0,0.647610994,346.6073231,1.7,'11111222,11111222,11111222' 
TABS,ioos:station:TABS:X:1,2015-08-02T15:30:00Z,27.0660,-96.3383,4.0,0.136014705,287.102689,1.21,'11111222,11111222,11111222' 
TABS,ioos:station:TABS:X:1,2015-08-02T16:00:00Z,27.0660,-96.3383,4.0,1.248078523,142.4876864,2.42,'11111222,11111222,11111222' 
TABS,ioos:station:TABS:X:1,2015-08-02T16:30:00Z,27.0660,-96.3383,4.0,1.139517442,132.5107686,2.81,'11111222,11111222,11111222' 
TABS,ioos:station:TABS:X:1,2015-08-02T17:00:00Z,27.0660,-96.3383,4.0,1.833930206,74.82669922,3.61,'11111222,11111222,11111222' 
TABS,ioos:station:TABS:X:1,2015-08-02T17:30:00Z,27.0660,-96.3383,4.0,1.296533841,84.24502721,3.6,'11111222,11111222,11111222' 
TABS,ioos:station:TABS:X:1,2015-08-02T18:00:00Z,27.0660,-96.3383,4.0,2.052218312,102.9531551,3.56,'11111222,11111222,11111222' 
TABS,ioos:station:TABS:X:1,2015-08-02T18:30:00Z,27.0660,-96.3383,4.0,1.381918956,341.4337727,3.21,'11111222,11111222,11111222' 
TABS,ioos:station:TABS:X:1,2015-08-02T19:00:00Z,27.0660,-96.3383,4.0,1.30736376,60.68964055,3.79,'11111222,11111222,11111222' 
TABS,ioos:station:TABS:X:1,2015-08-02T19:30:00Z,27.0660,-96.3383,4.0,1.950102561,90.58804796,3.72,'11111222,11111222,11111222' 
TABS,ioos:station:TABS:X:1,2015-08-02T20:00:00Z,27.0660,-96.3383,4.0,1.337348122,47.12077575,3.2,'11111222,11111222,11111222' 
TABS,ioos:station:TABS:X:1,2015-08-02T20:30:00Z,27.0660,-96.3383,4.0,2.181031866,66.49059383,4.53,'11111222,11111222,11111222' 
TABS,ioos:station:TABS:X:1,2015-08-02T21:00:00Z,27.0660,-96.3383,4.0,1.505456741,19.39755663,2.98,'11111222,11111222,11111222' 
TABS,ioos:station:TABS:X:1,2015-08-02T21:30:00Z,27.0660,-96.3383,4.0,0.427200187,327.4258086,1.1,'11111222,11111222,11111222' 
TABS,ioos:station:TABS:X:1,2015-08-02T22:00:00Z,27.0660,-96.3383,4.0,1.61644672,109.8926315,2.86,'11111222,11111222,11111222' 
TABS,ioos:station:TABS:X:1,2015-08-02T22:30:00Z,27.0660,-96.3383,4.0,1.964510117,106.8672384,3.27,'11111222,11111222,11111222' 
TABS,ioos:station:TABS:X:1,2015-08-02T23:00:00Z,27.0660,-96.3383,4.0,1.925123373,80.73299351,3.91,'11111222,11111222,11111222' 
TABS,ioos:station:TABS:X:1,2015-08-02T23:30:00Z,27.0660,-96.3383,4.0,1.478715659,125.0875874,3.31,'11111222,11111222,11111222' 
TABS,ioos:station:TABS:X:1,2015-08-03T00:00:00Z,27.0660,-96.3383,4.0,0.0,0.0,0.0,'11111222,11111222,11111222' 
TABS,ioos:station:TABS:X:1,2015-08-03T00:30:00Z,27.0660,-96.3383,4.0,2.170921463,134.4404412,3.96,'11111222,11111222,11111222' 
TABS,ioos:station:TABS:X:1,2015-08-03T01:00:00Z,27.0660,-96.3383,4.0,1.77789201,145.7739287,2.74,'11111222,11111222,11111222' 
TABS,ioos:station:TABS:X:1,2015-08-03T01:30:00Z,27.0660,-96.3383,4.0,0.451220567,167.1959743,1.12,'11111222,11111222,11111222' 
TABS,ioos:station:TABS:X:1,2015-08-03T02:00:00Z,27.0660,-96.3383,4.0,0.51009803,181.1235105,1.17,'11111222,11111222,11111222' 
TABS,ioos:station:TABS:X:1,2015-08-03T02:30:00Z,27.0660,-96.3383,4.0,0.830963296,182.7593117,2.05,'11111222,11111222,11111222' 
TABS,ioos:station:TABS:X:1,2015-08-03T03:00:00Z,27.0660,-96.3383,4.0,0.802807573,193.6902281,1.79,'11111222,11111222,11111222' 
TABS,ioos:station:TABS:X:1,2015-08-03T03:30:00Z,27.0660,-96.3383,4.0,0.698713103,189.0580774,1.63,'11111222,11111222,11111222' 
TABS,ioos:station:TABS:X:1,2015-08-03T04:00:00Z,27.0660,-96.3383,4.0,1.566971602,188.440556,2.76,'11111222,11111222,11111222' 
TABS,ioos:station:TABS:X:1,2015-08-03T04:30:00Z,27.0660,-96.3383,4.0,1.57708592,192.4501779,2.77,'11111222,11111222,11111222' 
TABS,ioos:station:TABS:X:1,2015-08-03T05:00:00Z,27.0660,-96.3383,4.0,1.075639345,196.7504358,2.3,'11111222,11111222,11111222' 
TABS,ioos:station:TABS:X:1,2015-08-03T05:30:00Z,27.0660,-96.3383,4.0,0.768960337,200.5562076,1.61,'11111222,11111222,11111222' 
TABS,ioos:station:TABS:X:1,2015-08-03T06:00:00Z,27.0660,-96.3383,4.0,0.694622199,186.6136555,1.48,'11111222,11111222,11111222' 
TABS,ioos:station:TABS:X:1,2015-08-03T06:30:00Z,27.0660,-96.3383,4.0,0.386264158,201.2506663,1.23,'11111222,11111222,11111222' 
TABS,ioos:station:TABS:X:1,2015-08-03T07:00:00Z,27.0660,-96.3383,4.0,0.316227766,198.4351162,0.86,'11111222,11111222,11111222' 
TABS,ioos:station:TABS:X:1,2015-08-03T07:30:00Z,27.0660,-96.3383,4.0,0.486621002,189.4625105,0.95,'11111222,11111222,11111222' 
TABS,ioos:station:TABS:X:1,2015-08-03T08:00:00Z,27.0660,-96.3383,4.0,0.425793377,189.4625105,0.99,'11111222,11111222,11111222' 
TABS,ioos:station:TABS:X:1,2015-08-03T08:30:00Z,27.0660,-96.3383,4.0,0.509607692,195.9455691,0.96,'11111222,11111222,11111222' 
TABS,ioos:station:TABS:X:1,2015-08-03T09:00:00Z,27.0660,-96.3383,4.0,0.491934955,153.4352214,0.75,'11111222,11111222,11111222' 
TABS,ioos:station:TABS:X:1,2015-08-03T09:30:00Z,27.0660,-96.3383,4.0,0.300832179,195.4223357,0.59,'11111222,11111222,11111222' 
TABS,ioos:station:TABS:X:1,2015-08-03T10:00:00Z,27.0660,-96.3383,4.0,0.199248588,197.5257379,0.5,'11111222,11111222,11111222' 
TABS,ioos:station:TABS:X:1,2015-08-03T10:30:00Z,27.0660,-96.3383,4.0,0.174642492,166.7597215,0.43,'11111222,11111222,11111222' 
TABS,ioos:station:TABS:X:1,2015-08-03T11:00:00Z,27.0660,-96.3383,4.0,0.31,180.0002105,0.56,'11111222,11111222,11111222' 
TABS,ioos:station:TABS:X:1,2015-08-03T11:30:00Z,27.0660,-96.3383,4.0,0.251793566,186.8429679,0.41,'11111222,11111222,11111222' 
TABS,ioos:station:TABS:X:1,2015-08-03T12:00:00Z,27.0660,-96.3383,4.0,0.319061123,57.80392044,0.49,'11111222,11111222,11111222' 
TABS,ioos:station:TABS:X:1,2015-08-03T12:30:00Z,27.0660,-96.3383,4.0,0.661286625,159.6470289,1.22,'11111222,11111222,11111222' 
TABS,ioos:station:TABS:X:1,2015-08-03T13:00:00Z,27.0660,-96.3383,4.0,0.250798724,265.4260894,0.83,'11111222,11111222,11111222' 
TABS,ioos:station:TABS:X:1,2015-08-03T13:30:00Z,27.0660,-96.3383,4.0,0.579827561,225.0001052,1.6,'11111222,11111222,11111222' 
TABS,ioos:station:TABS:X:1,2015-08-03T14:00:00Z,27.0660,-96.3383,4.0,0.0,0.0,0.0,'11111222,11111222,11111222' 
TABS,ioos:station:TABS:X:1,2015-08-03T14:30:00Z,27.0660,-96.3383,4.0,0.0,0.0,0.0,'11111222,11111222,11111222' 
TABS,ioos:station:TABS:X:1,2015-08-03T15:00:00Z,27.0660,-96.3383,4.0,0.0,0.0,0.0,'11111222,11111222,11111222' 
TABS,ioos:station:TABS:X:1,2015-08-03T15:30:00Z,27.0660,-96.3383,4.0,0.0,0.0,0.0,'11111222,11111222,11111222' 
TABS,ioos:station:TABS:X:1,2015-08-03T16:00:00Z,27.0660,-96.3383,4.0,0.0,0.0,0.0,'11111222,11111222,11111222' 
TABS,ioos:station:TABS:X:1,2015-08-03T16:30:00Z,27.0660,-96.3383,4.0,0.0,0.0,0.0,'11111222,11111222,11111222' 
TABS,ioos:station:TABS:X:1,2015-08-03T17:00:00Z,27.0660,-96.3383,4.0,0.0,0.0,0.0,'11111222,11111222,11111222' 
TABS,ioos:station:TABS:X:1,2015-08-03T17:30:00Z,27.0660,-96.3383,4.0,0.0,0.0,0.0,'11111222,11111222,11111222' 
TABS,ioos:station:TABS:X:1,2015-08-03T18:00:00Z,27.0660,-96.3383,4.0,0.0,0.0,0.0,'11111222,11111222,11111222' 
TABS,ioos:station:TABS:X:1,2015-08-03T18:30:00Z,27.0660,-96.3383,4.0,0.0,0.0,0.0,'11111222,11111222,11111222' 
TABS,ioos:station:TABS:X:1,2015-08-03T19:00:00Z,27.0660,-96.3383,4.0,0.0,0.0,0.0,'11111222,11111222,11111222' 
TABS,ioos:station:TABS:X:1,2015-08-03T19:30:00Z,27.0660,-96.3383,4.0,0.0,0.0,0.0,'11111222,11111222,11111222' 
TABS,ioos:station:TABS:X:1,2015-08-03T20:00:00Z,27.0660,-96.3383,4.0,0.0,0.0,0.0,'11111222,11111222,11111222' 
TABS,ioos:station:TABS:X:1,2015-08-03T20:30:00Z,27.0660,-96.3383,4.0,0.0,0.0,0.0,'11111222,11111222,11111222' 
TABS,ioos:station:TABS:X:1,2015-08-03T21:00:00Z,27.0660,-96.3383,4.0,0.0,0.0,0.0,'11111222,11111222,11111222' 
TABS,ioos:station:TABS:X:1,2015-08-03T21:30:00Z,27.0660,-96.3383,4.0,0.0,0.0,0.0,'11111222,11111222,11111222' 
TABS,ioos:station:TABS:X:1,2015-08-03T22:00:00Z,27.0660,-96.3383,4.0,0.0,0.0,0.0,'11111222,11111222,11111222' 
TABS,ioos:station:TABS:X:1,2015-08-03T22:30:00Z,27.0660,-96.3383,4.0,0.0,0.0,0.0,'11111222,11111222,11111222' 
TABS,ioos:station:TABS:X:1,2015-08-03T23:00:00Z,27.0660,-96.3383,4.0,0.0,0.0,0.0,'11111222,11111222,11111222' 
TABS,ioos:station:TABS:X:1,2015-08-03T23:30:00Z,27.0660,-96.3383,4.0,0.0,0.0,0.0,'11111222,11111222,11111222' 
TABS,ioos:station:TABS:X:1,2015-08-04T00:00:00Z,27.0660,-96.3383,4.0,0.0,0.0,0.0,'11111222,11111222,11111222' 
TABS,ioos:station:TABS:X:1,2015-08-04T00:30:00Z,27.0660,-96.3383,4.0,0.0,0.0,0.0,'11111222,11111222,11111222' 
TABS,ioos:station:TABS:X:1,2015-08-04T01:00:00Z,27.0660,-96.3383,4.0,0.0,0.0,0.0,'11111222,11111222,11111222' 
TABS,ioos:station:TABS:X:1,2015-08-04T01:30:00Z,27.0660,-96.3383,4.0,0.0,0.0,0.0,'11111222,11111222,11111222' 
TABS,ioos:station:TABS:X:1,2015-08-04T02:00:00Z,27.0660,-96.3383,4.0,0.0,0.0,0.0,'11111222,11111222,11111222' 
TABS,ioos:station:TABS:X:1,2015-08-04T02:30:00Z,27.0660,-96.3383,4.0,0.0,0.0,0.0,'11111222,11111222,11111222' 
TABS,ioos:station:TABS:X:1,2015-08-04T03:00:00Z,27.0660,-96.3383,4.0,0.0,0.0,0.0,'11111222,11111222,11111222' 
TABS,ioos:station:TABS:X:1,2015-08-04T03:30:00Z,27.0660,-96.3383,4.0,0.0,0.0,0.0,'11111222,11111222,11111222' 
TABS,ioos:station:TABS:X:1,2015-08-04T04:00:00Z,27.0660,-96.3383,4.0,0.0,0.0,0.0,'11111222,11111222,11111222' 
TABS,ioos:station:TABS:X:1,2015-08-04T04:30:00Z,27.0660,-96.3383,4.0,0.0,0.0,0.0,'11111222,11111222,11111222' 
TABS,ioos:station:TABS:X:1,2015-08-04T05:00:00Z,27.0660,-96.3383,4.0,0.0,0.0,0.0,'11111222,11111222,11111222' 
TABS,ioos:station:TABS:X:1,2015-08-04T05:30:00Z,27.0660,-96.3383,4.0,0.0,0.0,0.0,'11111222,11111222,11111222' 
TABS,ioos:station:TABS:X:1,2015-08-04T06:00:00Z,27.0660,-96.3383,4.0,0.0,0.0,0.0,'11111222,11111222,11111222' 
TABS,ioos:station:TABS:X:1,2015-08-04T06:30:00Z,27.0660,-96.3383,4.0,0.0,0.0,0.0,'11111222,11111222,11111222' 
TABS,ioos:station:TABS:X:1,2015-08-04T07:00:00Z,27.0660,-96.3383,4.0,0.0,0.0,0.0,'11111222,11111222,11111222' 
TABS,ioos:station:TABS:X:1,2015-08-04T07:30:00Z,27.0660,-96.3383,4.0,0.0,0.0,0.0,'11111222,11111222,11111222' 
TABS,ioos:station:TABS:X:1,2015-08-04T08:00:00Z,27.0660,-96.3383,4.0,0.0,0.0,0.0,'11111222,11111222,11111222' 
TABS,ioos:station:TABS:X:1,2015-08-04T08:30:00Z,27.0660,-96.3383,4.0,0.0,0.0,0.0,'11111222,11111222,11111222' 
TABS,ioos:station:TABS:X:1,2015-08-04T09:00:00Z,27.0660,-96.3383,4.0,0.0,0.0,0.0,'11111222,11111222,11111222' 
TABS,ioos:station:TABS:X:1,2015-08-04T09:30:00Z,27.0660,-96.3383,4.0,0.0,0.0,0.0,'11111222,11111222,11111222' 
TABS,ioos:station:TABS:X:1,2015-08-04T10:00:00Z,27.0660,-96.3383,4.0,0.0,0.0,0.0,'11111222,11111222,11111222' 
TABS,ioos:station:TABS:X:1,2015-08-04T10:30:00Z,27.0660,-96.3383,4.0,0.0,0.0,0.0,'11111222,11111222,11111222' 
TABS,ioos:station:TABS:X:1,2015-08-04T11:00:00Z,27.0660,-96.3383,4.0,0.0,0.0,0.0,'11111222,11111222,11111222' 
TABS,ioos:station:TABS:X:1,2015-08-04T11:30:00Z,27.0660,-96.3383,4.0,0.0,0.0,0.0,'11111222,11111222,11111222' 
TABS,ioos:station:TABS:X:1,2015-08-04T12:00:00Z,27.0660,-96.3383,4.0,0.0,0.0,0.0,'11111222,11111222,11111222' 
TABS,ioos:station:TABS:X:1,2015-08-04T12:30:00Z,27.0660,-96.3383,4.0,0.0,0.0,0.0,'11111222,11111222,11111222' 
TABS,ioos:station:TABS:X:1,2015-08-04T13:00:00Z,27.0660,-96.3383,4.0,0.0,0.0,0.0,'11111222,11111222,11111222' 
TABS,ioos:station:TABS:X:1,2015-08-04T13:30:00Z,27.0660,-96.3383,4.0,0.0,0.0,0.0,'11111222,11111222,11111222' 
TABS,ioos:station:TABS:X:1,2015-08-04T14:00:00Z,27.0660,-96.3383,4.0,0.0,0.0,0.0,'11111222,11111222,11111222' 
TABS,ioos:station:TABS:X:1,2015-08-04T14:30:00Z,27.0660,-96.3383,4.0,0.0,0.0,0.0,'11111222,11111222,11111222' 
TABS,ioos:station:TABS:X:1,2015-08-04T15:00:00Z,27.0660,-96.3383,4.0,0.0,0.0,0.0,'11111222,11111222,11111222' 
TABS,ioos:station:TABS:X:1,2015-08-04T15:30:00Z,27.0660,-96.3383,4.0,0.0,0.0,0.0,'11111222,11111222,11111222' 
TABS,ioos:station:TABS:X:1,2015-08-04T16:00:00Z,27.0660,-96.3383,4.0,0.0,0.0,0.0,'11111222,11111222,11111222' 
TABS,ioos:station:TABS:X:1,2015-08-04T16:30:00Z,27.0660,-96.3383,4.0,0.0,0.0,0.0,'11111222,11111222,11111222' 
TABS,ioos:station:TABS:X:1,2015-08-04T17:00:00Z,27.0660,-96.3383,4.0,0.0,0.0,0.0,'11111222,11111222,11111222' 
TABS,ioos:station:TABS:X:1,2015-08-04T21:00:00Z,27.0660,-96.3383,4.0,0.988584847,172.4438841,3.16,'11111222,11111222,11111222' 
TABS,ioos:station:TABS:X:1,2015-08-04T21:30:00Z,27.0660,-96.3383,4.0,2.010895323,88.28976904,4.44,'11111222,11111222,11111222' 
TABS,ioos:station:TABS:X:1,2015-08-04T22:00:00Z,27.0660,-96.3383,4.0,1.512415287,196.5179861,2.83,'11111222,11111222,11111222' 
TABS,ioos:station:TABS:X:1,2015-08-05T02:00:00Z,27.0660,-96.3383,4.0,2.90518502,129.5533856,5.19,'11111222,11111222,11111222' 
TABS,ioos:station:TABS:X:1,2015-08-05T03:00:00Z,27.0660,-96.3383,4.0,0.0,0.0,0.0,'11111222,11111222,11111222' 
TABS,ioos:station:TABS:X:1,2015-08-05T03:30:00Z,27.0660,-96.3383,4.0,4.03396827,128.6601388,6.09,'11111222,11111222,11111222' 
TABS,ioos:station:TABS:X:1,2015-08-05T06:30:00Z,27.0660,-96.3383,4.0,0.192353841,81.02697345,3.12,'11111222,11111222,11111222' 
TABS,ioos:station:TABS:X:1,2015-08-05T07:00:00Z,27.0660,-96.3383,4.0,0.468721666,101.0705976,3.15,'11111222,11111222,11111222' 
TABS,ioos:station:TABS:X:1,2015-08-05T07:30:00Z,27.0660,-96.3383,4.0,0.703278039,299.8458622,1.72,'11111222,11111222,11111222' 
TABS,ioos:station:TABS:X:1,2015-08-05T08:00:00Z,27.0660,-96.3383,4.0,0.246981781,291.3705723,2.43,'11111222,11111222,11111222' 
TABS,ioos:station:TABS:X:1,2015-08-05T09:30:00Z,27.0660,-96.3383,4.0,1.751142484,121.693589,4.61,'11111222,11111222,11111222' 
TABS,ioos:station:TABS:X:1,2015-08-05T14:00:00Z,27.0660,-96.3383,4.0,1.787092611,189.9895945,4.01,'11111222,11111222,11111222' 
TABS,ioos:station:TABS:X:1,2015-08-05T14:30:00Z,27.0660,-96.3383,4.0,1.00019998,258.4654063,3.14,'11111222,11111222,11111222' 
TABS,ioos:station:TABS:X:1,2015-08-05T17:00:00Z,27.0660,-96.3383,4.0,0.747930478,60.34978491,1.39,'11111222,11111222,11111222' 
TABS,ioos:station:TABS:X:1,2015-08-05T19:30:00Z,27.0660,-96.3383,4.0,2.444688119,234.48965,3.72,'11111222,11111222,11111222' 
TABS,ioos:station:TABS:X:1,2015-08-05T20:00:00Z,27.0660,-96.3383,4.0,0.746860094,243.7780945,2.25,'11111222,11111222,11111222' 